contact:dominique.lefevre@mio.osupytheas.fr, maurice.libes@osupytheas.fr, didier.mallarino@osupytheas.fr
Project:EMSO http://www.emso-fr.org/EMSO-France
Depth: 2436.0 m
Title:EMSO Ligure Ouest : Data MII capteur CSTAR
DateTime,Latitude,Longitude,Instrument_Serial,Reference_Counts,Signal_Counts,Corrected_Signal_raw_counts,Calculated_Beam_c_inverse_meters,Internal_thermistor_counts
DateTime,Latitude,Longitude,Instrument_Serial,Reference_Counts,Signal_Counts,Corrected_Signal_raw_counts,Calculated_Beam_c_inverse_meters,Internal_thermistor_counts
2020-06-09T00:00:18,42.805,6.029,CST-1368DR,6218,8704,15134,0.125,550
2020-06-09T00:03:20,42.805,6.029,CST-1368DR,6218,8714,15151,0.121,551
2020-06-09T00:06:22,42.805,6.029,CST-1368DR,6218,8711,15145,0.123,551
2020-06-09T00:09:23,42.805,6.029,CST-1368DR,6217,8713,15151,0.121,551
2020-06-09T00:12:25,42.805,6.029,CST-1368DR,6217,8712,15151,0.121,551
2020-06-09T00:15:27,42.805,6.029,CST-1368DR,6217,8711,15149,0.121,550
2020-06-09T00:18:29,42.805,6.029,CST-1368DR,6217,8712,15150,0.121,551
2020-06-09T00:21:30,42.805,6.029,CST-1368DR,6217,8712,15150,0.121,551
2020-06-09T00:24:32,42.805,6.029,CST-1368DR,6217,8712,15150,0.121,551
2020-06-09T00:27:34,42.805,6.029,CST-1368DR,6217,8708,15143,0.123,551
2020-06-09T00:30:35,42.805,6.029,CST-1368DR,6217,8710,15147,0.122,551
2020-06-09T00:33:37,42.805,6.029,CST-1368DR,6218,8712,15147,0.122,551
2020-06-09T00:36:39,42.805,6.029,CST-1368DR,6217,8711,15149,0.121,551
2020-06-09T00:39:40,42.805,6.029,CST-1368DR,6217,8711,15149,0.121,551
2020-06-09T00:42:42,42.805,6.029,CST-1368DR,6217,8709,15145,0.123,551
2020-06-09T00:45:44,42.805,6.029,CST-1368DR,6217,8713,15151,0.121,551
2020-06-09T00:48:45,42.805,6.029,CST-1368DR,6217,8712,15150,0.121,550
2020-06-09T00:51:47,42.805,6.029,CST-1368DR,6217,8713,15151,0.121,551
2020-06-09T00:54:49,42.805,6.029,CST-1368DR,6217,8711,15149,0.121,551
2020-06-09T00:57:51,42.805,6.029,CST-1368DR,6217,8711,15148,0.122,551
2020-06-09T01:00:52,42.805,6.029,CST-1368DR,6217,8711,15148,0.122,551
2020-06-09T01:03:54,42.805,6.029,CST-1368DR,6217,8712,15150,0.121,551
2020-06-09T01:06:56,42.805,6.029,CST-1368DR,6217,8712,15150,0.121,551
2020-06-09T01:09:57,42.805,6.029,CST-1368DR,6217,8712,15151,0.121,551
2020-06-09T01:12:59,42.805,6.029,CST-1368DR,6217,8713,15151,0.121,551
2020-06-09T01:16:01,42.805,6.029,CST-1368DR,6217,8713,15151,0.121,551
2020-06-09T01:19:02,42.805,6.029,CST-1368DR,6217,8713,15152,0.121,551
2020-06-09T01:22:04,42.805,6.029,CST-1368DR,6217,8713,15151,0.121,551
2020-06-09T01:25:06,42.805,6.029,CST-1368DR,6217,8713,15152,0.121,551
2020-06-09T01:28:07,42.805,6.029,CST-1368DR,6217,8713,15151,0.121,551
2020-06-09T01:31:09,42.805,6.029,CST-1368DR,6217,8714,15153,0.120,551
2020-06-09T01:34:11,42.805,6.029,CST-1368DR,6217,8713,15152,0.121,551
2020-06-09T01:37:12,42.805,6.029,CST-1368DR,6217,8712,15149,0.121,551
2020-06-09T01:40:14,42.805,6.029,CST-1368DR,6217,8713,15152,0.121,551
2020-06-09T01:43:16,42.805,6.029,CST-1368DR,6217,8713,15151,0.121,551
2020-06-09T01:46:18,42.805,6.029,CST-1368DR,6217,8713,15151,0.121,551
2020-06-09T01:49:19,42.805,6.029,CST-1368DR,6217,8713,15152,0.121,551
2020-06-09T01:52:21,42.805,6.029,CST-1368DR,6217,8712,15150,0.121,551
2020-06-09T01:55:23,42.805,6.029,CST-1368DR,6217,8713,15152,0.121,551
2020-06-09T01:58:25,42.805,6.029,CST-1368DR,6217,8714,15153,0.120,551
2020-06-09T02:01:26,42.805,6.029,CST-1368DR,6217,8714,15154,0.120,551
2020-06-09T02:04:28,42.805,6.029,CST-1368DR,6217,8713,15152,0.121,551
2020-06-09T02:07:30,42.805,6.029,CST-1368DR,6217,8712,15150,0.121,551
2020-06-09T02:10:32,42.805,6.029,CST-1368DR,6217,8714,15154,0.120,551
2020-06-09T02:13:33,42.805,6.029,CST-1368DR,6217,8712,15150,0.121,551
2020-06-09T02:16:35,42.805,6.029,CST-1368DR,6217,8712,15150,0.121,551
2020-06-09T02:19:37,42.805,6.029,CST-1368DR,6217,8713,15151,0.121,551
2020-06-09T02:22:38,42.805,6.029,CST-1368DR,6217,8713,15151,0.121,550
2020-06-09T02:25:40,42.805,6.029,CST-1368DR,6217,8713,15152,0.121,551
2020-06-09T02:28:42,42.805,6.029,CST-1368DR,6217,8712,15150,0.121,551
2020-06-09T02:31:44,42.805,6.029,CST-1368DR,6217,8714,15154,0.120,551
2020-06-09T02:34:45,42.805,6.029,CST-1368DR,6217,8713,15152,0.121,551
2020-06-09T02:37:47,42.805,6.029,CST-1368DR,6217,8714,15154,0.120,551
2020-06-09T02:40:49,42.805,6.029,CST-1368DR,6217,8714,15153,0.120,551
2020-06-09T02:43:51,42.805,6.029,CST-1368DR,6217,8713,15151,0.121,551
2020-06-09T02:46:52,42.805,6.029,CST-1368DR,6217,8713,15152,0.121,551
2020-06-09T02:49:54,42.805,6.029,CST-1368DR,6217,8713,15152,0.121,551
2020-06-09T02:52:56,42.805,6.029,CST-1368DR,6217,8713,15151,0.121,551
2020-06-09T02:55:57,42.805,6.029,CST-1368DR,6217,8713,15151,0.121,551
2020-06-09T02:58:59,42.805,6.029,CST-1368DR,6217,8714,15153,0.120,551
2020-06-09T03:02:01,42.805,6.029,CST-1368DR,6217,8713,15152,0.121,551
2020-06-09T03:05:03,42.805,6.029,CST-1368DR,6217,8713,15151,0.121,551
2020-06-09T03:08:04,42.805,6.029,CST-1368DR,6217,8713,15152,0.121,551
2020-06-09T03:11:06,42.805,6.029,CST-1368DR,6217,8713,15151,0.121,551
2020-06-09T03:14:08,42.805,6.029,CST-1368DR,6217,8713,15152,0.121,551
2020-06-09T03:17:10,42.805,6.029,CST-1368DR,6217,8712,15151,0.121,551
2020-06-09T03:20:11,42.805,6.029,CST-1368DR,6217,8712,15151,0.121,551
2020-06-09T03:23:13,42.805,6.029,CST-1368DR,6217,8711,15149,0.121,551
2020-06-09T03:26:15,42.805,6.029,CST-1368DR,6217,8714,15153,0.120,551
2020-06-09T03:29:16,42.805,6.029,CST-1368DR,6217,8714,15153,0.120,551
2020-06-09T03:32:18,42.805,6.029,CST-1368DR,6217,8713,15152,0.121,551
2020-06-09T03:35:20,42.805,6.029,CST-1368DR,6217,8715,15154,0.120,551
2020-06-09T03:38:21,42.805,6.029,CST-1368DR,6217,8714,15154,0.120,551
2020-06-09T03:41:23,42.805,6.029,CST-1368DR,6217,8708,15142,0.123,551
2020-06-09T03:44:25,42.805,6.029,CST-1368DR,6217,8714,15154,0.120,551
2020-06-09T03:47:27,42.805,6.029,CST-1368DR,6217,8713,15152,0.121,551
2020-06-09T03:50:28,42.805,6.029,CST-1368DR,6217,8711,15148,0.122,551
2020-06-09T03:53:30,42.805,6.029,CST-1368DR,6217,8712,15151,0.121,551
2020-06-09T03:56:32,42.805,6.029,CST-1368DR,6217,8713,15152,0.121,551
2020-06-09T03:59:33,42.805,6.029,CST-1368DR,6217,8711,15148,0.122,551
2020-06-09T04:02:35,42.805,6.029,CST-1368DR,6217,8712,15150,0.121,551
2020-06-09T04:05:37,42.805,6.029,CST-1368DR,6217,8715,15154,0.120,551
2020-06-09T04:08:39,42.805,6.029,CST-1368DR,6217,8712,15150,0.121,551
2020-06-09T04:11:40,42.805,6.029,CST-1368DR,6217,8714,15154,0.120,551
2020-06-09T04:14:42,42.805,6.029,CST-1368DR,6217,8712,15150,0.121,551
2020-06-09T04:17:44,42.805,6.029,CST-1368DR,6217,8714,15153,0.120,550
2020-06-09T04:20:45,42.805,6.029,CST-1368DR,6217,8712,15151,0.121,551
2020-06-09T04:23:47,42.805,6.029,CST-1368DR,6217,8714,15153,0.120,551
2020-06-09T04:26:49,42.805,6.029,CST-1368DR,6217,8713,15152,0.121,551
2020-06-09T04:29:51,42.805,6.029,CST-1368DR,6217,8711,15148,0.122,551
2020-06-09T04:32:53,42.805,6.029,CST-1368DR,6217,8712,15150,0.121,551
2020-06-09T04:35:54,42.805,6.029,CST-1368DR,6217,8714,15154,0.120,551
2020-06-09T04:38:56,42.805,6.029,CST-1368DR,6217,8713,15152,0.121,551
2020-06-09T04:41:58,42.805,6.029,CST-1368DR,6217,8712,15150,0.121,551
2020-06-09T04:44:59,42.805,6.029,CST-1368DR,6217,8713,15152,0.121,551
2020-06-09T04:48:01,42.805,6.029,CST-1368DR,6217,8712,15149,0.121,551
2020-06-09T04:51:03,42.805,6.029,CST-1368DR,6217,8713,15152,0.121,551
2020-06-09T04:54:04,42.805,6.029,CST-1368DR,6217,8711,15148,0.122,551
2020-06-09T04:57:06,42.805,6.029,CST-1368DR,6217,8713,15151,0.121,551
2020-06-09T05:00:08,42.805,6.029,CST-1368DR,6217,8714,15154,0.120,551
2020-06-09T05:03:09,42.805,6.029,CST-1368DR,6217,8713,15151,0.121,551
2020-06-09T05:06:11,42.805,6.029,CST-1368DR,6217,8713,15152,0.121,551
2020-06-09T05:09:13,42.805,6.029,CST-1368DR,6217,8712,15150,0.121,551
2020-06-09T05:12:15,42.805,6.029,CST-1368DR,6217,8713,15152,0.121,551
2020-06-09T05:15:16,42.805,6.029,CST-1368DR,6217,8713,15151,0.121,551
2020-06-09T05:18:18,42.805,6.029,CST-1368DR,6217,8712,15150,0.121,551
2020-06-09T05:21:20,42.805,6.029,CST-1368DR,6217,8713,15152,0.121,551
2020-06-09T05:24:21,42.805,6.029,CST-1368DR,6217,8711,15149,0.121,551
2020-06-09T05:27:23,42.805,6.029,CST-1368DR,6216,8712,15153,0.120,551
2020-06-09T05:30:25,42.805,6.029,CST-1368DR,6216,8715,15157,0.119,551
2020-06-09T05:33:26,42.805,6.029,CST-1368DR,6217,8713,15152,0.121,551
2020-06-09T05:36:28,42.805,6.029,CST-1368DR,6217,8713,15152,0.121,551
2020-06-09T05:39:30,42.805,6.029,CST-1368DR,6217,8712,15150,0.121,551
2020-06-09T05:42:31,42.805,6.029,CST-1368DR,6217,8712,15151,0.121,551
2020-06-09T05:45:33,42.805,6.029,CST-1368DR,6217,8713,15152,0.121,551
2020-06-09T05:48:35,42.805,6.029,CST-1368DR,6217,8713,15152,0.121,551
2020-06-09T05:51:36,42.805,6.029,CST-1368DR,6216,8713,15153,0.120,551
2020-06-09T05:54:38,42.805,6.029,CST-1368DR,6217,8713,15152,0.121,551
2020-06-09T05:57:40,42.805,6.029,CST-1368DR,6216,8714,15155,0.120,551
2020-06-09T06:00:42,42.805,6.029,CST-1368DR,6216,8714,15156,0.120,551
2020-06-09T06:03:43,42.805,6.029,CST-1368DR,6216,8713,15154,0.120,551
2020-06-09T06:06:45,42.805,6.029,CST-1368DR,6216,8712,15152,0.121,551
2020-06-09T06:09:47,42.805,6.029,CST-1368DR,6216,8712,15152,0.121,551
2020-06-09T06:12:48,42.805,6.029,CST-1368DR,6216,8713,15154,0.120,551
2020-06-09T06:15:50,42.805,6.029,CST-1368DR,6216,8711,15151,0.121,551
2020-06-09T06:18:52,42.805,6.029,CST-1368DR,6216,8713,15153,0.120,551
2020-06-09T06:21:53,42.805,6.029,CST-1368DR,6216,8712,15152,0.121,551
2020-06-09T06:24:55,42.805,6.029,CST-1368DR,6216,8712,15153,0.120,551
2020-06-09T06:27:57,42.805,6.029,CST-1368DR,6216,8713,15153,0.120,551
2020-06-09T06:30:59,42.805,6.029,CST-1368DR,6216,8713,15154,0.120,551
2020-06-09T06:34:00,42.805,6.029,CST-1368DR,6216,8713,15155,0.120,551
2020-06-09T06:37:02,42.805,6.029,CST-1368DR,6216,8711,15150,0.121,551
2020-06-09T06:40:04,42.805,6.029,CST-1368DR,6216,8712,15153,0.120,551
2020-06-09T06:43:05,42.805,6.029,CST-1368DR,6216,8712,15152,0.121,551
2020-06-09T06:46:07,42.805,6.029,CST-1368DR,6216,8711,15150,0.121,551
2020-06-09T06:49:09,42.805,6.029,CST-1368DR,6216,8713,15153,0.120,551
2020-06-09T06:52:11,42.805,6.029,CST-1368DR,6216,8713,15153,0.120,550
2020-06-09T06:55:12,42.805,6.029,CST-1368DR,6216,8713,15155,0.120,551
2020-06-09T06:58:14,42.805,6.029,CST-1368DR,6216,8713,15153,0.120,551
2020-06-09T07:01:16,42.805,6.029,CST-1368DR,6216,8713,15153,0.120,551
2020-06-09T07:04:18,42.805,6.029,CST-1368DR,6216,8712,15153,0.120,551
2020-06-09T07:07:19,42.805,6.029,CST-1368DR,6216,8709,15147,0.122,551
2020-06-09T07:10:21,42.805,6.029,CST-1368DR,6216,8712,15152,0.121,551
2020-06-09T07:13:23,42.805,6.029,CST-1368DR,6216,8713,15153,0.120,551
2020-06-09T07:16:24,42.805,6.029,CST-1368DR,6216,8711,15151,0.121,551
2020-06-09T07:19:26,42.805,6.029,CST-1368DR,6216,8712,15153,0.120,551
2020-06-09T07:22:28,42.805,6.029,CST-1368DR,6216,8713,15153,0.120,551
2020-06-09T07:25:29,42.805,6.029,CST-1368DR,6216,8712,15153,0.120,551
2020-06-09T07:28:31,42.805,6.029,CST-1368DR,6216,8711,15151,0.121,551
2020-06-09T07:31:33,42.805,6.029,CST-1368DR,6216,8712,15152,0.121,551
2020-06-09T07:34:35,42.805,6.029,CST-1368DR,6216,8712,15153,0.120,551
2020-06-09T07:37:36,42.805,6.029,CST-1368DR,6216,8713,15153,0.120,551
2020-06-09T07:40:38,42.805,6.029,CST-1368DR,6216,8713,15153,0.120,551
2020-06-09T07:43:40,42.805,6.029,CST-1368DR,6216,8712,15152,0.121,551
2020-06-09T07:46:42,42.805,6.029,CST-1368DR,6216,8712,15152,0.121,551
2020-06-09T07:49:43,42.805,6.029,CST-1368DR,6216,8712,15152,0.121,551
2020-06-09T07:52:45,42.805,6.029,CST-1368DR,6216,8712,15152,0.121,551
2020-06-09T07:55:47,42.805,6.029,CST-1368DR,6216,8711,15151,0.121,551
2020-06-09T07:58:49,42.805,6.029,CST-1368DR,6216,8712,15153,0.120,551
2020-06-09T08:01:50,42.805,6.029,CST-1368DR,6216,8712,15153,0.120,551
2020-06-09T08:04:52,42.805,6.029,CST-1368DR,6216,8712,15153,0.120,551
2020-06-09T08:07:54,42.805,6.029,CST-1368DR,6216,8710,15149,0.121,551
2020-06-09T08:10:55,42.805,6.029,CST-1368DR,6216,8709,15146,0.122,551
2020-06-09T08:13:57,42.805,6.029,CST-1368DR,6216,8711,15151,0.121,551
2020-06-09T08:16:59,42.805,6.029,CST-1368DR,6216,8712,15152,0.121,551
2020-06-09T08:20:01,42.805,6.029,CST-1368DR,6216,8712,15152,0.121,551
2020-06-09T08:23:02,42.805,6.029,CST-1368DR,6216,8712,15153,0.120,551
2020-06-09T08:26:04,42.805,6.029,CST-1368DR,6216,8712,15152,0.121,551
2020-06-09T08:29:06,42.805,6.029,CST-1368DR,6216,8711,15151,0.121,551
2020-06-09T08:32:07,42.805,6.029,CST-1368DR,6216,8712,15153,0.120,551
2020-06-09T08:35:09,42.805,6.029,CST-1368DR,6216,8712,15152,0.121,551
2020-06-09T08:38:11,42.805,6.029,CST-1368DR,6216,8711,15150,0.121,551
2020-06-09T08:41:12,42.805,6.029,CST-1368DR,6216,8712,15152,0.121,551
2020-06-09T08:44:14,42.805,6.029,CST-1368DR,6216,8711,15151,0.121,551
2020-06-09T08:47:16,42.805,6.029,CST-1368DR,6216,8713,15153,0.120,551
2020-06-09T08:50:18,42.805,6.029,CST-1368DR,6216,8711,15151,0.121,551
2020-06-09T08:53:19,42.805,6.029,CST-1368DR,6216,8711,15150,0.121,551
2020-06-09T08:56:21,42.805,6.029,CST-1368DR,6216,8712,15152,0.121,551
2020-06-09T08:59:23,42.805,6.029,CST-1368DR,6216,8711,15150,0.121,551
2020-06-09T09:02:24,42.805,6.029,CST-1368DR,6216,8710,15148,0.122,551
2020-06-09T09:05:26,42.805,6.029,CST-1368DR,6216,8712,15153,0.120,551
2020-06-09T09:08:28,42.805,6.029,CST-1368DR,6216,8712,15152,0.121,551
2020-06-09T09:11:29,42.805,6.029,CST-1368DR,6216,8712,15152,0.121,551
2020-06-09T09:14:31,42.805,6.029,CST-1368DR,6216,8711,15151,0.121,551
2020-06-09T09:17:33,42.805,6.029,CST-1368DR,6216,8711,15151,0.121,551
2020-06-09T09:20:34,42.805,6.029,CST-1368DR,6216,8711,15151,0.121,551
2020-06-09T09:23:36,42.805,6.029,CST-1368DR,6216,8712,15152,0.121,551
2020-06-09T09:26:38,42.805,6.029,CST-1368DR,6216,8712,15152,0.121,551
2020-06-09T09:29:40,42.805,6.029,CST-1368DR,6216,8712,15152,0.121,551
2020-06-09T09:32:41,42.805,6.029,CST-1368DR,6216,8712,15152,0.121,551
2020-06-09T09:35:43,42.805,6.029,CST-1368DR,6216,8708,15146,0.122,551
2020-06-09T09:38:45,42.805,6.029,CST-1368DR,6216,8708,15145,0.123,551
2020-06-09T09:41:46,42.805,6.029,CST-1368DR,6216,8712,15152,0.121,551
2020-06-09T09:44:48,42.805,6.029,CST-1368DR,6216,8710,15149,0.121,551
2020-06-09T09:47:50,42.805,6.029,CST-1368DR,6216,8711,15150,0.121,551
2020-06-09T09:50:52,42.805,6.029,CST-1368DR,6216,8712,15152,0.121,551
2020-06-09T09:53:53,42.805,6.029,CST-1368DR,6216,8711,15151,0.121,551
2020-06-09T09:56:55,42.805,6.029,CST-1368DR,6216,8711,15150,0.121,550
2020-06-09T09:59:57,42.805,6.029,CST-1368DR,6216,8711,15151,0.121,551
2020-06-09T10:02:58,42.805,6.029,CST-1368DR,6216,8709,15147,0.122,551
2020-06-09T10:06:00,42.805,6.029,CST-1368DR,6216,8711,15151,0.121,551
2020-06-09T10:09:02,42.805,6.029,CST-1368DR,6216,8712,15152,0.121,551
2020-06-09T10:12:04,42.805,6.029,CST-1368DR,6216,8711,15151,0.121,551
2020-06-09T10:15:05,42.805,6.029,CST-1368DR,6216,8712,15152,0.121,551
2020-06-09T10:18:07,42.805,6.029,CST-1368DR,6216,8712,15152,0.121,551
2020-06-09T10:21:09,42.805,6.029,CST-1368DR,6216,8711,15151,0.121,551
2020-06-09T10:24:10,42.805,6.029,CST-1368DR,6216,8710,15149,0.121,551
2020-06-09T10:27:12,42.805,6.029,CST-1368DR,6216,8709,15147,0.122,551
2020-06-09T10:30:14,42.805,6.029,CST-1368DR,6216,8709,15147,0.122,551
2020-06-09T10:33:16,42.805,6.029,CST-1368DR,6216,8709,15147,0.122,551
2020-06-09T10:36:17,42.805,6.029,CST-1368DR,6216,8711,15150,0.121,551
2020-06-09T10:39:19,42.805,6.029,CST-1368DR,6216,8710,15148,0.122,551
2020-06-09T10:42:21,42.805,6.029,CST-1368DR,6216,8711,15150,0.121,551
2020-06-09T10:45:22,42.805,6.029,CST-1368DR,6216,8709,15147,0.122,551
2020-06-09T10:48:24,42.805,6.029,CST-1368DR,6216,8711,15150,0.121,551
2020-06-09T10:51:26,42.805,6.029,CST-1368DR,6216,8710,15148,0.122,551
2020-06-09T10:54:28,42.805,6.029,CST-1368DR,6216,8711,15150,0.121,551
2020-06-09T10:57:29,42.805,6.029,CST-1368DR,6216,8711,15151,0.121,551
2020-06-09T11:00:31,42.805,6.029,CST-1368DR,6216,8711,15150,0.121,551
2020-06-09T11:03:33,42.805,6.029,CST-1368DR,6216,8711,15150,0.121,551
2020-06-09T11:06:34,42.805,6.029,CST-1368DR,6216,8711,15151,0.121,551
2020-06-09T11:09:36,42.805,6.029,CST-1368DR,6216,8710,15148,0.122,551
2020-06-09T11:12:38,42.805,6.029,CST-1368DR,6216,8711,15150,0.121,551
2020-06-09T11:15:40,42.805,6.029,CST-1368DR,6216,8711,15150,0.121,551
2020-06-09T11:18:41,42.805,6.029,CST-1368DR,6216,8710,15148,0.122,551
2020-06-09T11:21:43,42.805,6.029,CST-1368DR,6216,8711,15151,0.121,551
2020-06-09T11:24:45,42.805,6.029,CST-1368DR,6216,8710,15148,0.122,551
2020-06-09T11:27:46,42.805,6.029,CST-1368DR,6216,8710,15149,0.121,551
2020-06-09T11:30:48,42.805,6.029,CST-1368DR,6216,8709,15147,0.122,551
2020-06-09T11:33:50,42.805,6.029,CST-1368DR,6216,8710,15148,0.122,551
2020-06-09T11:36:51,42.805,6.029,CST-1368DR,6216,8710,15148,0.122,551
2020-06-09T11:39:53,42.805,6.029,CST-1368DR,6216,8710,15148,0.122,551
2020-06-09T11:42:55,42.805,6.029,CST-1368DR,6216,8710,15149,0.121,551
2020-06-09T11:45:56,42.805,6.029,CST-1368DR,6216,8710,15148,0.122,551
2020-06-09T11:48:58,42.805,6.029,CST-1368DR,6215,8710,15151,0.121,550
2020-06-09T11:52:00,42.805,6.029,CST-1368DR,6215,8710,15150,0.121,551
2020-06-09T11:55:02,42.805,6.029,CST-1368DR,6215,8710,15150,0.121,551
2020-06-09T11:58:03,42.805,6.029,CST-1368DR,6215,8711,15152,0.121,551
2020-06-09T12:01:05,42.805,6.029,CST-1368DR,6215,8710,15151,0.121,551
2020-06-09T12:04:07,42.805,6.029,CST-1368DR,6216,8710,15148,0.122,551
2020-06-09T12:07:08,42.805,6.029,CST-1368DR,6215,8710,15150,0.121,551
2020-06-09T12:10:10,42.805,6.029,CST-1368DR,6215,8711,15153,0.120,551
2020-06-09T12:13:12,42.805,6.029,CST-1368DR,6215,8711,15152,0.121,551
2020-06-09T12:16:13,42.805,6.029,CST-1368DR,6215,8709,15150,0.121,551
2020-06-09T12:19:15,42.805,6.029,CST-1368DR,6215,8711,15153,0.120,551
2020-06-09T12:22:17,42.805,6.029,CST-1368DR,6216,8711,15150,0.121,551
2020-06-09T12:25:18,42.805,6.029,CST-1368DR,6216,8710,15149,0.121,551
2020-06-09T12:28:20,42.805,6.029,CST-1368DR,6215,8711,15152,0.121,551
2020-06-09T12:31:22,42.805,6.029,CST-1368DR,6215,8711,15152,0.121,551
2020-06-09T12:34:24,42.805,6.029,CST-1368DR,6215,8709,15149,0.121,551
2020-06-09T12:37:25,42.805,6.029,CST-1368DR,6215,8710,15150,0.121,551
2020-06-09T12:40:27,42.805,6.029,CST-1368DR,6215,8711,15153,0.120,551
2020-06-09T12:43:29,42.805,6.029,CST-1368DR,6215,8710,15151,0.121,551
2020-06-09T12:46:31,42.805,6.029,CST-1368DR,6215,8711,15153,0.120,551
2020-06-09T12:49:32,42.805,6.029,CST-1368DR,6215,8711,15152,0.121,551
2020-06-09T12:52:34,42.805,6.029,CST-1368DR,6215,8711,15153,0.120,551
2020-06-09T12:55:36,42.805,6.029,CST-1368DR,6215,8711,15152,0.121,551
2020-06-09T12:58:37,42.805,6.029,CST-1368DR,6215,8710,15151,0.121,551
2020-06-09T13:01:39,42.805,6.029,CST-1368DR,6215,8710,15150,0.121,551
2020-06-09T13:04:41,42.805,6.029,CST-1368DR,6215,8710,15150,0.121,551
2020-06-09T13:07:42,42.805,6.029,CST-1368DR,6215,8710,15151,0.121,551
2020-06-09T13:10:44,42.805,6.029,CST-1368DR,6215,8711,15152,0.121,551
2020-06-09T13:13:46,42.805,6.029,CST-1368DR,6215,8710,15151,0.121,551
2020-06-09T13:16:48,42.805,6.029,CST-1368DR,6215,8710,15150,0.121,551
2020-06-09T13:19:50,42.805,6.029,CST-1368DR,6215,8710,15151,0.121,551
2020-06-09T13:22:51,42.805,6.029,CST-1368DR,6215,8710,15150,0.121,551
2020-06-09T13:25:53,42.805,6.029,CST-1368DR,6215,8710,15151,0.121,550
2020-06-09T13:28:55,42.805,6.029,CST-1368DR,6215,8709,15149,0.121,551
2020-06-09T13:31:56,42.805,6.029,CST-1368DR,6215,8709,15149,0.121,551
2020-06-09T13:34:58,42.805,6.029,CST-1368DR,6215,8710,15151,0.121,551
2020-06-09T13:38:00,42.805,6.029,CST-1368DR,6215,8710,15150,0.121,551
2020-06-09T13:41:02,42.805,6.029,CST-1368DR,6215,8709,15149,0.121,551
2020-06-09T13:44:03,42.805,6.029,CST-1368DR,6215,8709,15150,0.121,550
2020-06-09T13:47:05,42.805,6.029,CST-1368DR,6215,8708,15148,0.122,551
2020-06-09T13:50:07,42.805,6.029,CST-1368DR,6215,8710,15150,0.121,551
2020-06-09T13:53:08,42.805,6.029,CST-1368DR,6215,8710,15150,0.121,550
2020-06-09T13:56:10,42.805,6.029,CST-1368DR,6215,8710,15150,0.121,551
2020-06-09T13:59:12,42.805,6.029,CST-1368DR,6215,8708,15148,0.122,551
2020-06-09T14:02:13,42.805,6.029,CST-1368DR,6215,8709,15149,0.121,551
2020-06-09T14:05:15,42.805,6.029,CST-1368DR,6215,8709,15149,0.121,550
2020-06-09T14:08:17,42.805,6.029,CST-1368DR,6215,8709,15150,0.121,551
2020-06-09T14:11:18,42.805,6.029,CST-1368DR,6215,8709,15150,0.121,551
2020-06-09T14:14:20,42.805,6.029,CST-1368DR,6215,8707,15146,0.122,551
2020-06-09T14:17:22,42.805,6.029,CST-1368DR,6215,8708,15147,0.122,551
2020-06-09T14:20:23,42.805,6.029,CST-1368DR,6215,8708,15147,0.122,551
2020-06-09T14:23:25,42.805,6.029,CST-1368DR,6215,8708,15148,0.122,551
2020-06-09T14:26:27,42.805,6.029,CST-1368DR,6215,8706,15144,0.123,551
2020-06-09T14:29:29,42.805,6.029,CST-1368DR,6215,8708,15148,0.122,551
2020-06-09T14:32:30,42.805,6.029,CST-1368DR,6215,8710,15150,0.121,551
2020-06-09T14:35:32,42.805,6.029,CST-1368DR,6215,8709,15149,0.121,551
2020-06-09T14:38:34,42.805,6.029,CST-1368DR,6215,8709,15149,0.121,551
2020-06-09T14:41:35,42.805,6.029,CST-1368DR,6215,8709,15149,0.121,551
2020-06-09T14:44:37,42.805,6.029,CST-1368DR,6215,8708,15147,0.122,550
2020-06-09T14:47:39,42.805,6.029,CST-1368DR,6215,8709,15149,0.121,551
2020-06-09T14:50:41,42.805,6.029,CST-1368DR,6215,8709,15149,0.121,551
2020-06-09T14:53:43,42.805,6.029,CST-1368DR,6215,8709,15149,0.121,551
2020-06-09T14:56:44,42.805,6.029,CST-1368DR,6215,8709,15149,0.121,551
2020-06-09T14:59:46,42.805,6.029,CST-1368DR,6215,8709,15150,0.121,551
2020-06-09T15:02:48,42.805,6.029,CST-1368DR,6215,8710,15150,0.121,551
2020-06-09T15:05:49,42.805,6.029,CST-1368DR,6215,8709,15149,0.121,551
2020-06-09T15:08:51,42.805,6.029,CST-1368DR,6215,8709,15149,0.121,551
2020-06-09T15:11:53,42.805,6.029,CST-1368DR,6215,8709,15149,0.121,551
2020-06-09T15:14:54,42.805,6.029,CST-1368DR,6215,8709,15149,0.121,551
2020-06-09T15:17:56,42.805,6.029,CST-1368DR,6215,8708,15148,0.122,551
2020-06-09T15:20:58,42.805,6.029,CST-1368DR,6215,8709,15149,0.121,551
2020-06-09T15:23:59,42.805,6.029,CST-1368DR,6215,8709,15150,0.121,551
2020-06-09T15:27:01,42.805,6.029,CST-1368DR,6215,8708,15148,0.122,551
2020-06-09T15:30:03,42.805,6.029,CST-1368DR,6215,8709,15149,0.121,551
2020-06-09T15:33:04,42.805,6.029,CST-1368DR,6215,8708,15147,0.122,551
2020-06-09T15:36:06,42.805,6.029,CST-1368DR,6215,8708,15148,0.122,551
2020-06-09T15:39:08,42.805,6.029,CST-1368DR,6215,8709,15149,0.121,551
2020-06-09T15:42:09,42.805,6.029,CST-1368DR,6215,8709,15149,0.121,551
2020-06-09T15:45:11,42.805,6.029,CST-1368DR,6215,8708,15147,0.122,551
2020-06-09T15:48:13,42.805,6.029,CST-1368DR,6215,8707,15146,0.122,551
2020-06-09T15:51:15,42.805,6.029,CST-1368DR,6215,8707,15146,0.122,551
2020-06-09T15:54:17,42.805,6.029,CST-1368DR,6215,8704,15141,0.124,551
2020-06-09T15:57:18,42.805,6.029,CST-1368DR,6215,8709,15149,0.121,551
2020-06-09T16:00:20,42.805,6.029,CST-1368DR,6215,8709,15149,0.121,551
2020-06-09T16:03:22,42.805,6.029,CST-1368DR,6215,8709,15150,0.121,551
2020-06-09T16:06:23,42.805,6.029,CST-1368DR,6215,8708,15148,0.122,551
2020-06-09T16:09:25,42.805,6.029,CST-1368DR,6215,8708,15147,0.122,551
2020-06-09T16:12:27,42.805,6.029,CST-1368DR,6215,8709,15150,0.121,551
2020-06-09T16:15:28,42.805,6.029,CST-1368DR,6215,8701,15136,0.125,551
2020-06-09T16:18:30,42.805,6.029,CST-1368DR,6215,8709,15149,0.121,551
2020-06-09T16:21:32,42.805,6.029,CST-1368DR,6215,8710,15150,0.121,551
2020-06-09T16:24:33,42.805,6.029,CST-1368DR,6215,8709,15149,0.121,551
2020-06-09T16:27:35,42.805,6.029,CST-1368DR,6215,8709,15149,0.121,551
2020-06-09T16:30:37,42.805,6.029,CST-1368DR,6215,8709,15150,0.121,551
2020-06-09T16:33:38,42.805,6.029,CST-1368DR,6215,8708,15148,0.122,551
2020-06-09T16:36:40,42.805,6.029,CST-1368DR,6215,8709,15149,0.121,551
2020-06-09T16:39:42,42.805,6.029,CST-1368DR,6215,8708,15148,0.122,551
2020-06-09T16:42:43,42.805,6.029,CST-1368DR,6215,8708,15148,0.122,551
2020-06-09T16:45:45,42.805,6.029,CST-1368DR,6215,8709,15149,0.121,551
2020-06-09T16:48:47,42.805,6.029,CST-1368DR,6215,8708,15148,0.122,551
2020-06-09T16:51:48,42.805,6.029,CST-1368DR,6215,8709,15149,0.121,551